DECAYED

OBJECT E, 67225 (Decayed)

Orbit data source: Space-Track

You're viewing an Uncataloged Satellite

Recently launched and/or uncataloged satellites may have evolving metadata. Metadata may include but not limited to: Owner, Maufacturer, Bus, Motor, and Mission.

OBJECT E, 67225 was a satellite owned by CASC (CN) in LEO that was launched on Sat, 08 Nov 2025 UTC launched from the Yellow Sea Launch Area, China (YSLA). Unknown objects in Earth's orbit typically refer to objects detected orbiting the Earth but have not yet been identified or cataloged. These objects could be anything from previously untracked satellites, spent rocket stages, debris from satellite collisions, or even natural meteoroids temporarily captured by Earth's gravity. This object's orbit decayed before it could be identified.

Not visible in the next 10 days
Identifier
67225, 2025-255E
Orbit
Decayed
Country
Flag of CNCN / PRC
Related business
Manufacturer
IMI/CAS
Mission
Decayed spacecraft
Bus & Motor
Unknown
Mass
Unknown
Launch date (UTC)
2025-11-08 (7 months ago)
Launch vehicle
Unknown
Launch site
Yellow Sea Launch Area, China (YSLA)
Object type
Unknown
Shape & HBR
Unknown shape, 1.1 m
Radar Cross Section
Medium (>0.1 m² and <1 m²)

Expand to show TLE details & history
Last TLE update: 6 months ago

TLE from 6 months ago
0 OBJECT E
1 67225U 25255E   25356.79243583  .10038012  00000-0  40648-1 0  9991
2 67225  52.9828 129.2548 0025308   3.7803 145.5912 15.80597960   667
Epoch: 2025-12-22T19:01Z
TLE epoch observation values (Epoch: 2025-12-22T19:01:06.455Z)
Latitude
23.94545°
Longitude
-87.05674°
Altitude
343.611 km
Speed
7.698 km/s
True Right ascension
19h 19m 13s
True Declination
23° 48' 37"
Sunlit
Object was in daylight at epoch
Visualization orbit readout
Latitude
Unknown
Longitude
Unknown
Altitude
Unknown
Speed
Unknown
Apparent Right ascension
Unknown
Apparent Declination
Unknown
Sunlit
N/A
Visualization observer readout
Local Sidereal Time
07:16:05
Azimuth
Unknown
Elevation
Unknown
Doppler factor
Unknown
Orbital elements
Apogee altitude
346.014 km
Perigee altitude
312.065 km
Semi-major axis
6,707.177 km
Eccentricity
0.00253
Inclination
52.9828°
RAAN
129.2548°
Arg. of periapsis
3.7803°
True anomaly
145.75466°
Mean anomaly
145.5912°
Eccentric anomaly
145.67297°
Mean motion
3.95124 °/min
Orbital period
91.11 mins
BSTAR
0.040648
Loading maneuver chart data...
Computing Atmospheric mass density...
Loading historical data...
Loading historical data...
Loading historical data...
Loading historical data...
Loading historical data...
Loading historical data...
Loading historical data...
Other satellites on launch #255 in the year 2025 (2025-11-08 UTC)

Documentation

Showing up to 5 results
|